AXM6077 WBKK-WBGR

Flight info

Callsign AXM6077
Flight time 0h 36m
Altitude 24000
Route DULIM2F DULIM DCT BRU DCT GODOM GODOM1E
Aircraft A20N/M-SDE2E3FGHIRWXY/LB1

Departure

Time 2026-05-07 14:12
Airport Kota Kinabalu International Airport (WBKK)

Arrival

Time 2026-05-07 14:48
Airport Miri Airport (WBGR)
Time Latitude Longitude Altitude Speed Heading
2026-05-07 13:56 5.92632 116.05054 29 ft 0 kts 113°
2026-05-07 14:02 5.92635 116.05049 28 ft 1 kts 113°
2026-05-07 14:03 5.92638 116.05042 28 ft 1 kts 114°
2026-05-07 14:03 5.92641 116.05035 28 ft 1 kts 119°
2026-05-07 14:03 5.92645 116.05028 28 ft 1 kts 126°
2026-05-07 14:03 5.92650 116.05022 28 ft 1 kts 131°
2026-05-07 14:04 5.92655 116.05016 28 ft 1 kts 137°
2026-05-07 14:04 5.92666 116.05006 28 ft 2 kts 147°
2026-05-07 14:04 5.92679 116.04999 28 ft 2 kts 162°
2026-05-07 14:04 5.92692 116.04996 28 ft 2 kts 175°
2026-05-07 14:05 5.92699 116.04995 28 ft 0 kts 182°
2026-05-07 14:06 5.92697 116.04995 28 ft 1 kts 182°
2026-05-07 14:06 5.92676 116.04993 28 ft 4 kts 195°
2026-05-07 14:07 5.92636 116.04977 28 ft 8 kts 202°
2026-05-07 14:07 5.92574 116.04951 28 ft 11 kts 202°
2026-05-07 14:07 5.92508 116.04923 28 ft 11 kts 203°
2026-05-07 14:07 5.92411 116.04872 28 ft 13 kts 228°
2026-05-07 14:08 5.92397 116.04830 29 ft 7 kts 274°
2026-05-07 14:08 5.92417 116.04773 28 ft 10 kts 291°
2026-05-07 14:08 5.92444 116.04710 28 ft 0 kts 293°
2026-05-07 14:10 5.92445 116.04707 28 ft 2 kts 293°
2026-05-07 14:10 5.92456 116.04682 28 ft 6 kts 292°
2026-05-07 14:10 5.92477 116.04634 28 ft 9 kts 294°
2026-05-07 14:10 5.92517 116.04609 28 ft 8 kts
2026-05-07 14:11 5.92527 116.04612 28 ft 0 kts 19°
2026-05-07 14:11 5.92622 116.04652 28 ft 49 kts 25°
2026-05-07 14:11 5.93193 116.04894 29 ft 125 kts 23°
2026-05-07 14:11 5.94140 116.05297 321 ft 155 kts 24°
2026-05-07 14:12 5.95149 116.05705 1055 ft 157 kts 21°
2026-05-07 14:12 5.96132 116.05920 1759 ft 157 kts 358°
2026-05-07 14:12 5.97108 116.05649 2286 ft 172 kts 328°
2026-05-07 14:12 5.97972 116.04725 2777 ft 193 kts 307°
2026-05-07 14:13 5.98796 116.03570 3272 ft 214 kts 306°
2026-05-07 14:13 5.99712 116.02280 3726 ft 239 kts 306°
2026-05-07 14:13 6.00730 116.00862 4257 ft 261 kts 306°
2026-05-07 14:13 6.01769 115.99428 4823 ft 277 kts 306°
2026-05-07 14:14 6.02601 115.97681 5679 ft 282 kts 282°
2026-05-07 14:14 6.02589 115.95705 6553 ft 287 kts 255°
2026-05-07 14:14 6.01706 115.93915 7388 ft 290 kts 229°
2026-05-07 14:14 6.00224 115.92713 8161 ft 293 kts 207°
2026-05-07 14:15 5.98563 115.91913 8904 ft 296 kts 201°
2026-05-07 14:15 5.96649 115.91107 9740 ft 300 kts 201°
2026-05-07 14:15 5.94708 115.90276 10391 ft 311 kts 202°
2026-05-07 14:15 5.92657 115.89352 10635 ft 335 kts 203°
2026-05-07 14:16 5.90480 115.88325 10930 ft 354 kts 204°
2026-05-07 14:16 5.88244 115.87245 11617 ft 359 kts 204°
2026-05-07 14:16 5.85986 115.86146 12330 ft 363 kts 205°
2026-05-07 14:16 5.83702 115.85033 13037 ft 367 kts 204°
2026-05-07 14:17 5.81389 115.83907 13733 ft 372 kts 204°
2026-05-07 14:17 5.79443 115.82961 14234 ft 375 kts 204°
2026-05-07 14:17 5.77080 115.81813 14837 ft 379 kts 204°
2026-05-07 14:17 5.75032 115.80819 15360 ft 383 kts 204°
2026-05-07 14:18 5.72620 115.79656 15947 ft 387 kts 204°
2026-05-07 14:18 5.70166 115.78491 16514 ft 392 kts 204°
2026-05-07 14:18 5.67694 115.77324 17100 ft 395 kts 204°
2026-05-07 14:18 5.65187 115.76141 17615 ft 400 kts 204°
2026-05-07 14:19 5.62659 115.74947 17805 ft 402 kts 204°
2026-05-07 14:19 5.60131 115.73751 17844 ft 402 kts 204°
2026-05-07 14:19 5.57716 115.72344 17845 ft 404 kts 216°
2026-05-07 14:19 5.55646 115.70435 17847 ft 405 kts 229°
2026-05-07 14:20 5.54016 115.68128 17848 ft 405 kts 238°
2026-05-07 14:20 5.52526 115.65725 17844 ft 406 kts 238°
2026-05-07 14:20 5.51031 115.63324 17846 ft 406 kts 237°
2026-05-07 14:20 5.49634 115.61087 17847 ft 405 kts 237°
2026-05-07 14:21 5.48241 115.58859 17872 ft 407 kts 237°
2026-05-07 14:21 5.46727 115.56440 18311 ft 410 kts 237°
2026-05-07 14:21 5.45317 115.54229 18839 ft 410 kts 234°
2026-05-07 14:21 5.43563 115.52020 19352 ft 412 kts 227°
2026-05-07 14:22 5.41640 115.49861 19836 ft 415 kts 227°
2026-05-07 14:22 5.39717 115.47691 20339 ft 418 kts 228°
2026-05-07 14:22 5.37897 115.45631 20803 ft 421 kts 228°
2026-05-07 14:22 5.35942 115.43416 21295 ft 423 kts 228°
2026-05-07 14:23 5.34007 115.41223 21759 ft 427 kts 228°
2026-05-07 14:23 5.32036 115.38990 22252 ft 429 kts 228°
2026-05-07 14:23 5.30026 115.36712 22723 ft 432 kts 228°
2026-05-07 14:23 5.28050 115.34474 23177 ft 435 kts 228°
2026-05-07 14:24 5.26011 115.32165 23609 ft 438 kts 228°
2026-05-07 14:24 5.24015 115.29905 23787 ft 439 kts 228°
2026-05-07 14:24 5.21989 115.27610 23846 ft 439 kts 228°
2026-05-07 14:24 5.19966 115.25321 23856 ft 439 kts 228°
2026-05-07 14:25 5.18111 115.23220 23856 ft 439 kts 228°
2026-05-07 14:25 5.16490 115.21386 23855 ft 439 kts 228°
2026-05-07 14:25 5.14468 115.19098 23855 ft 439 kts 228°
2026-05-07 14:25 5.12444 115.16806 23856 ft 440 kts 228°
2026-05-07 14:26 5.10413 115.14509 23856 ft 439 kts 228°
2026-05-07 14:26 5.08387 115.12216 23856 ft 439 kts 228°
2026-05-07 14:26 5.06359 115.09921 23857 ft 440 kts 228°
2026-05-07 14:26 5.04331 115.07627 23860 ft 440 kts 228°
2026-05-07 14:27 5.02301 115.05332 23857 ft 440 kts 228°
2026-05-07 14:27 5.00274 115.03039 23856 ft 440 kts 228°
2026-05-07 14:27 4.98244 115.00744 23790 ft 438 kts 228°
2026-05-07 14:27 4.96236 114.98472 23491 ft 436 kts 228°
2026-05-07 14:28 4.94220 114.96193 22971 ft 434 kts 228°
2026-05-07 14:28 4.92230 114.93943 22404 ft 430 kts 228°
2026-05-07 14:28 4.90253 114.91707 21824 ft 426 kts 228°
2026-05-07 14:28 4.88298 114.89488 21258 ft 423 kts 229°
2026-05-07 14:29 4.86553 114.87129 20700 ft 420 kts 237°
2026-05-07 14:29 4.85010 114.84654 20145 ft 417 kts 237°
2026-05-07 14:29 4.83472 114.82200 19612 ft 414 kts 237°
2026-05-07 14:29 4.81946 114.79771 19082 ft 410 kts 237°
2026-05-07 14:30 4.80430 114.77362 18579 ft 407 kts 237°
2026-05-07 14:30 4.79020 114.75122 18101 ft 405 kts 237°
2026-05-07 14:30 4.77667 114.72971 17600 ft 401 kts 237°
2026-05-07 14:30 4.76186 114.70618 17076 ft 397 kts 237°
2026-05-07 14:31 4.74719 114.68288 16554 ft 393 kts 237°
2026-05-07 14:31 4.73267 114.65980 16027 ft 390 kts 237°
2026-05-07 14:31 4.71809 114.63664 15527 ft 386 kts 237°
2026-05-07 14:31 4.70398 114.61423 15045 ft 383 kts 237°
2026-05-07 14:32 4.68983 114.59174 14551 ft 380 kts 237°
2026-05-07 14:32 4.67563 114.56919 14067 ft 377 kts 237°
2026-05-07 14:32 4.66347 114.54988 13663 ft 374 kts 237°
2026-05-07 14:32 4.64965 114.52793 13142 ft 371 kts 237°
2026-05-07 14:33 4.63593 114.50615 12631 ft 367 kts 237°
2026-05-07 14:33 4.62234 114.48458 12112 ft 365 kts 237°
2026-05-07 14:33 4.60884 114.46315 11631 ft 361 kts 237°
2026-05-07 14:33 4.59550 114.44197 11150 ft 358 kts 237°
2026-05-07 14:34 4.58222 114.42089 10675 ft 356 kts 237°
2026-05-07 14:34 4.57029 114.40195 10285 ft 352 kts 237°
2026-05-07 14:34 4.55746 114.38158 10144 ft 339 kts 237°
2026-05-07 14:34 4.54514 114.36202 10027 ft 325 kts 237°
2026-05-07 14:35 4.53332 114.34326 9908 ft 312 kts 237°
2026-05-07 14:35 4.52194 114.32520 9704 ft 304 kts 237°
2026-05-07 14:35 4.51063 114.30727 9299 ft 302 kts 237°
2026-05-07 14:35 4.49946 114.28957 8919 ft 300 kts 237°
2026-05-07 14:36 4.48833 114.27191 8534 ft 298 kts 237°
2026-05-07 14:36 4.47727 114.25437 8147 ft 297 kts 237°
2026-05-07 14:36 4.46742 114.23875 7814 ft 295 kts 237°
2026-05-07 14:36 4.45762 114.22321 7479 ft 293 kts 237°
2026-05-07 14:37 4.44676 114.20598 7110 ft 291 kts 237°
2026-05-07 14:37 4.42134 114.17521 6382 ft 286 kts 214°
2026-05-07 14:37 4.40426 114.16580 6022 ft 284 kts 205°
2026-05-07 14:38 4.38633 114.15698 5649 ft 281 kts 205°
2026-05-07 14:38 4.36888 114.14829 5291 ft 279 kts 206°
2026-05-07 14:38 4.35153 114.13960 4940 ft 278 kts 206°
2026-05-07 14:38 4.33489 114.13125 4614 ft 276 kts 206°
2026-05-07 14:39 4.31783 114.12268 4261 ft 274 kts 206°
2026-05-07 14:39 4.30085 114.11415 3902 ft 272 kts 206°
2026-05-07 14:39 4.28401 114.10570 3566 ft 270 kts 206°
2026-05-07 14:39 4.26877 114.09806 3251 ft 268 kts 206°
2026-05-07 14:40 4.25258 114.08994 2920 ft 266 kts 206°
2026-05-07 14:40 4.23603 114.08164 2570 ft 265 kts 206°
2026-05-07 14:40 4.21961 114.07340 2287 ft 261 kts 206°
2026-05-07 14:40 4.20347 114.06530 2202 ft 265 kts 206°
2026-05-07 14:41 4.18700 114.05704 2197 ft 264 kts 206°
2026-05-07 14:41 4.17173 114.04938 2198 ft 264 kts 206°
2026-05-07 14:41 4.15567 114.04046 2194 ft 264 kts 218°
2026-05-07 14:41 4.14519 114.02785 2195 ft 265 kts 243°
2026-05-07 14:42 4.14080 114.00999 2202 ft 266 kts 266°
2026-05-07 14:42 4.13992 113.99155 2196 ft 260 kts 268°
2026-05-07 14:42 4.13938 113.97398 2197 ft 245 kts 268°
2026-05-07 14:42 4.13882 113.95747 2197 ft 229 kts 268°
2026-05-07 14:43 4.13819 113.94208 2195 ft 213 kts 268°
2026-05-07 14:43 4.14098 113.92770 2203 ft 216 kts 302°
2026-05-07 14:43 4.15221 113.91834 2227 ft 212 kts 340°
2026-05-07 14:43 4.16673 113.91717 2199 ft 212 kts
2026-05-07 14:44 4.18094 113.92126 2199 ft 212 kts 22°
2026-05-07 14:44 4.19434 113.92719 2195 ft 204 kts 26°
2026-05-07 14:44 4.20635 113.93289 2189 ft 177 kts 26°
2026-05-07 14:44 4.21529 113.93705 2062 ft 161 kts 26°
2026-05-07 14:45 4.22514 113.94166 1859 ft 151 kts 26°
2026-05-07 14:45 4.23435 113.94595 1679 ft 141 kts 26°
2026-05-07 14:45 4.24307 113.95002 1502 ft 138 kts 26°
2026-05-07 14:45 4.25179 113.95409 1321 ft 138 kts 26°
2026-05-07 14:46 4.26044 113.95813 1145 ft 137 kts 26°
2026-05-07 14:46 4.26898 113.96211 977 ft 137 kts 26°
2026-05-07 14:46 4.27758 113.96612 808 ft 136 kts 26°
2026-05-07 14:46 4.28615 113.97012 645 ft 136 kts 26°
2026-05-07 14:47 4.29473 113.97412 468 ft 136 kts 26°
2026-05-07 14:47 4.30325 113.97813 278 ft 135 kts 27°
2026-05-07 14:47 4.31173 113.98212 108 ft 134 kts 26°
2026-05-07 14:47 4.31874 113.98531 70 ft 94 kts 26°
2026-05-07 14:48 4.32249 113.98713 58 ft 44 kts 25°
2026-05-07 14:48 4.32382 113.98723 62 ft 11 kts 326°
2026-05-07 14:48 4.32423 113.98656 61 ft 14 kts 293°
2026-05-07 14:48 4.32468 113.98558 59 ft 18 kts 294°
2026-05-07 14:49 4.32450 113.98494 62 ft 5 kts 222°
2026-05-07 14:49 4.32456 113.98469 56 ft 5 kts 296°
2026-05-07 14:49 4.32470 113.98440 54 ft 0 kts 295°
2026-05-07 14:49 4.32475 113.98428 55 ft 3 kts 295°
2026-05-07 14:50 4.32479 113.98420 54 ft 0 kts 295°